Weather History for Martinsville, VA

Change the Weather History Date:

Thursday, April 25, 2013

  Actual Average (KGSO) Record (KGSO)
Temperature  
Mean Temperature 56 °F 61 °F  
Max Temperature 71 °F 73 °F 94 °F (1925)
Min Temperature 40 °F 50 °F 32 °F (1930)
Degree Days  
Heating Degree Days 10 5  
Month to date heating degree days 197  
Since 1 July heating degree days 3522  
Cooling Degree Days 0 2  
Month to date cooling degree days 27  
Year to date cooling degree days 32  
Growing Degree Days 6 (Base 50)    
Moisture  
Dew Point 34 °F    
Average Humidity 50    
Maximum Humidity 86    
Minimum Humidity 19    
Precipitation  
Precipitation 0.00 in 0.12 in 1.75 in (1978)
Month to date precipitation 3.01  
Year to date precipitation 12.76  
Snow  
Snow 0.00 in 0.00 in 0.00 in ()
Month to date snowfall 0.1  
Since 1 July snowfall 7.6  
Snow Depth -    
Sea Level Pressure  
Sea Level Pressure 30.23 in    
Wind  
Wind Speed 8 mph (NNW)    
Max Wind Speed 15 mph    
Max Gust Speed 21 mph    
Visibility 10 miles    
Events      
T = Trace of Precipitation, MM = Missing Value Source: NWS Daily Summary

Daily Weather History Graph

Daily Weather History Graph

Search for Another Location

Airport:

Trip Planner

Search our weather history database for the weather conditions in past years. The results will help you decide how hot, cold, wet, or windy it might be!

Date:

Astronomy

Apr. 25, 2013 Rise Set
Actual Time 6:33 AM EDT 8:03 PM EDT
Civil Twilight 6:05 AM EDT 8:30 PM EDT
Nautical Twilight 5:33 AM EDT 9:03 PM EDT
Astronomical Twilight 4:58 AM EDT 9:38 PM EDT
Moon 8:13 PM EDT (4/25) 6:14 AM EDT (4/25)
Length of Visible Light 14h 24m
Length of Day
13h 30m
Full, 100% of the Moon is Illuminated
Apr 25
Full
Apr 25
Full
May 2
Last Quarter
May 9
New
May 18
First Quarter

Hourly Weather History & Observations

Time (EDT) Temp. Windchill Dew Point Humidity Pressure Visibility Wind Dir Wind Speed Gust Speed Precip Events Conditions
12:15 AM 59.2 °F - 52.5 °F 79% 30.08 in 10.0 mi NNW 12.7 mph 18.4 mph N/A   Overcast
12:35 AM 58.1 °F - 52.0 °F 80% 30.08 in 10.0 mi NNW 11.5 mph 17.3 mph N/A   Light Drizzle
12:55 AM 57.4 °F - 47.3 °F 69% 30.09 in 10.0 mi NNW 15.0 mph 20.7 mph N/A   Overcast
1:15 AM 56.3 °F - 45.5 °F 67% 30.10 in 10.0 mi NNW 9.2 mph 20.7 mph N/A   Overcast
1:35 AM 55.4 °F - 45.0 °F 68% 30.10 in 10.0 mi NNW 10.4 mph 16.1 mph N/A   Mostly Cloudy
1:55 AM 55.4 °F - 44.4 °F 67% 30.11 in 10.0 mi NNW 9.2 mph - N/A   Overcast
2:15 AM 54.7 °F - 44.1 °F 67% 30.11 in 10.0 mi NNW 9.2 mph - N/A   Overcast
2:35 AM 53.8 °F - 43.7 °F 69% 30.11 in 10.0 mi NNW 8.1 mph 18.4 mph N/A   Overcast
2:55 AM 52.9 °F - 42.4 °F 68% 30.13 in 10.0 mi NW 12.7 mph 18.4 mph N/A   Overcast
3:15 AM 52.0 °F - 42.3 °F 69% 30.14 in 10.0 mi NNW 10.4 mph - N/A   Mostly Cloudy
3:35 AM 50.7 °F - 41.9 °F 72% 30.14 in 10.0 mi North 5.8 mph - N/A   Mostly Cloudy
3:55 AM 50.2 °F - 40.5 °F 69% 30.16 in 10.0 mi NNW 12.7 mph - N/A   Mostly Cloudy
4:15 AM 49.3 °F - 37.0 °F 63% 30.17 in 10.0 mi NNW 11.5 mph 17.3 mph N/A   Overcast
4:35 AM 48.4 °F - 35.8 °F 62% 30.18 in 10.0 mi NNW 13.8 mph 20.7 mph N/A   Overcast
4:55 AM 47.5 °F - 36.0 °F 64% 30.19 in 10.0 mi NNW 8.1 mph - N/A   Scattered Clouds
5:15 AM 46.8 °F - 35.4 °F 65% 30.20 in 10.0 mi NNW 6.9 mph - N/A   Scattered Clouds
5:35 AM 45.9 °F 41.7 °F 35.2 °F 66% 30.21 in 10.0 mi NNW 8.1 mph - N/A   Clear
5:55 AM 46.2 °F 41.7 °F 33.3 °F 61% 30.22 in 10.0 mi North 9.2 mph - N/A   Clear
6:15 AM 45.7 °F 39.8 °F 32.4 °F 60% 30.23 in 10.0 mi NNW 12.7 mph 17.3 mph N/A   Clear
6:35 AM 45.0 °F 41.8 °F 32.0 °F 60% 30.24 in 10.0 mi North 5.8 mph - N/A   Clear
6:55 AM 44.6 °F 39.2 °F 32.0 °F 61% 30.25 in 10.0 mi NNW 10.4 mph - N/A   Clear
7:15 AM 44.2 °F 39.2 °F 32.0 °F 62% 30.26 in 10.0 mi NNW 9.2 mph - N/A   Clear
7:35 AM 45.0 °F 41.2 °F 32.2 °F 61% 30.27 in 10.0 mi NNW 6.9 mph - N/A   Clear
7:55 AM 45.9 °F 40.8 °F 32.2 °F 59% 30.28 in 10.0 mi NNW 10.4 mph - N/A   Clear
8:15 AM 46.9 °F - 32.4 °F 57% 30.29 in 10.0 mi North 8.1 mph - N/A   Clear
8:35 AM 48.2 °F - 32.7 °F 55% 30.28 in 10.0 mi North 9.2 mph - N/A   Clear
8:55 AM 48.9 °F - 32.9 °F 54% 30.29 in 10.0 mi NNW 12.7 mph - N/A   Clear
9:15 AM 50.0 °F - 32.5 °F 51% 30.30 in 10.0 mi NNW 10.4 mph - N/A   Clear
9:35 AM 50.9 °F - 32.4 °F 49% 30.30 in 10.0 mi NNW 10.4 mph - N/A   Clear
9:55 AM 52.0 °F - 32.2 °F 47% 30.29 in 10.0 mi North 8.1 mph - N/A   Clear
10:15 AM 52.7 °F - 32.7 °F 47% 30.28 in 10.0 mi North 4.6 mph - N/A   Clear
10:35 AM 52.9 °F - 32.7 °F 46% 30.29 in 10.0 mi North 4.6 mph - N/A   Clear
10:55 AM 54.1 °F - 32.2 °F 43% 30.29 in 10.0 mi NW 4.6 mph - N/A   Clear
11:15 AM 55.4 °F - 31.5 °F 40% 30.30 in 10.0 mi Calm Calm - N/A   Clear
11:35 AM 57.2 °F - 31.8 °F 38% 30.29 in 10.0 mi NW 5.8 mph - N/A   Clear
11:55 AM 58.1 °F - 31.3 °F 36% 30.29 in 10.0 mi Calm Calm - N/A   Clear
12:15 PM 59.9 °F - 31.6 °F 34% 30.29 in 10.0 mi NNW 5.8 mph - N/A   Clear
12:35 PM 61.7 °F - 31.8 °F 33% 30.29 in 10.0 mi NNW 4.6 mph - N/A   Clear
12:55 PM 62.6 °F - 32.0 °F 32% 30.28 in 10.0 mi NW 3.5 mph - N/A   Clear
1:15 PM 64.6 °F - 32.7 °F 30% 30.27 in 10.0 mi East 5.8 mph - N/A   Clear
1:35 PM 64.4 °F - 27.5 °F 25% 30.27 in 10.0 mi Calm Calm - N/A   Clear
1:55 PM 66.2 °F - 27.9 °F 24% 30.26 in 10.0 mi East 3.5 mph - N/A   Clear
2:15 PM 66.4 °F - 27.7 °F 23% 30.26 in 10.0 mi Calm Calm - N/A   Clear
2:35 PM 68.0 °F - 29.7 °F 24% 30.26 in 10.0 mi Calm Calm - N/A   Clear
2:55 PM 68.5 °F - 30.4 °F 24% 30.25 in 10.0 mi Calm Calm - N/A   Clear
3:15 PM 69.8 °F - 31.3 °F 24% 30.25 in 10.0 mi Calm Calm - N/A   Clear
3:35 PM 69.8 °F - 25.5 °F 19% 30.24 in 10.0 mi Calm Calm - N/A   Clear
3:55 PM 69.8 °F - 26.8 °F 20% 30.23 in 10.0 mi NNW 3.5 mph - N/A   Clear
4:15 PM 70.9 °F - 29.3 °F 21% 30.22 in 10.0 mi SSW 3.5 mph - N/A   Clear
4:35 PM 70.7 °F - 29.3 °F 21% 30.22 in 10.0 mi SE 5.8 mph - N/A   Clear
4:55 PM 71.1 °F - 30.7 °F 22% 30.22 in 10.0 mi SSE 4.6 mph - N/A   Clear
5:15 PM 70.9 °F - 28.4 °F 21% 30.21 in 10.0 mi Calm Calm - N/A   Clear
5:35 PM 70.9 °F - 30.4 °F 22% 30.21 in 10.0 mi Calm Calm - N/A   Clear
5:55 PM 70.7 °F - 26.8 °F 19% 30.21 in 10.0 mi Calm Calm - N/A   Clear
6:15 PM 70.2 °F - 26.6 °F 20% 30.22 in 10.0 mi Calm Calm - N/A   Clear
6:35 PM 69.3 °F - 26.4 °F 20% 30.22 in 10.0 mi NW 6.9 mph - N/A   Clear
6:55 PM 67.1 °F - 23.0 °F 19% 30.22 in 10.0 mi NW 5.8 mph - N/A   Clear
7:15 PM 65.3 °F - 26.2 °F 23% 30.22 in 10.0 mi NNW 5.8 mph - N/A   Clear
7:35 PM 61.0 °F - 36.1 °F 40% 30.23 in 10.0 mi Calm Calm - N/A   Clear
7:55 PM 56.8 °F - 36.5 °F 47% 30.24 in 10.0 mi Calm Calm - N/A   Clear
8:15 PM 53.2 °F - 38.5 °F 57% 30.25 in 10.0 mi Calm Calm - N/A   Clear
8:35 PM 53.1 °F - 35.1 °F 50% 30.25 in 10.0 mi Calm Calm - N/A   Clear
8:55 PM 49.3 °F - 35.8 °F 60% 30.26 in 10.0 mi Calm Calm - N/A   Clear
9:15 PM 49.1 °F - 36.7 °F 62% 30.28 in 10.0 mi Calm Calm - N/A   Clear
9:35 PM 47.3 °F - 37.4 °F 68% 30.30 in 10.0 mi Calm Calm - N/A   Clear
9:55 PM 45.9 °F - 37.0 °F 71% 30.30 in 10.0 mi Calm Calm - N/A   Clear
10:15 PM 44.8 °F - 37.0 °F 74% 30.31 in 10.0 mi Calm Calm - N/A   Clear
10:35 PM 43.9 °F - 37.4 °F 78% 30.32 in 10.0 mi Calm Calm - N/A   Clear
10:55 PM 43.0 °F - 37.2 °F 80% 30.32 in 10.0 mi Calm Calm - N/A   Clear
11:15 PM 41.5 °F - 37.0 °F 84% 30.32 in 10.0 mi Calm Calm - N/A   Clear
11:35 PM 40.8 °F - 36.9 °F 86% 30.33 in 10.0 mi Calm Calm - N/A   Clear
11:55 PM 40.5 °F - 36.5 °F 86% 30.33 in 10.0 mi Calm Calm - N/A   Clear